User: anonymous
Location: Wilsall
(45.9940°N, 110.6590°W)
Time: 14:57:07
(UTC-06:00)
Language:

GP-B - Orbit

View from above orbital plane
View from above orbital plane
View from above satellite
View from above satellite

Ground track
Ground track

The orbit data is extracted from the following two-line orbital elements,

1 28230U 04014A   14109.46424992  .00001266  00000-0  17564-3 0   250
2 28230 089.8877 140.8147 0002144 095.8211 264.3256 14.77453207538527
Epoch (UTC): 19 April 2014 11:08:31
Eccentricity: 0.0002144
inclination: 89.8877°
perigee height: 636 km
apogee height: 639 km
right ascension of ascending node: 140.8147°
argument of perigee: 95.8211°
revolutions per day: 14.77453207
mean anomaly at epoch: 264.3256°
orbit number at epoch: 53852

The dashed part of the orbit path shows where the satellite is in the earth's shadow,  

DLR